Location: Gaast
(52.9002°N, 5.8891°E)
Time: 05:55:02
(UTC+00:00)

IRS-P3 - Pass Details

Date: 18 November 2025
Orbit: 810 x 816 km, 99.0° (Epoch: 11 December)

Event Time Altitude Azimuth Distance (km) Brightness Sun altitude
Rises 16:28:25 0° 141° (SE) 3,334 7.1 -7.7°
Reaches altitude 10° 16:30:49 10° 136° (SE) 2,405 6.4 -8.0°
Maximum altitude 16:35:52 46° 64° (ENE) 1,089 4.4 -8.7°
Drops below altitude 10° 16:40:57 10° 353° (N) 2,417 6.5 -9.5°
Sets 16:43:22 0° 347° (NNW) 3,352 7.2 -9.8°
